Date_and_time,latitude,longitude,wind_speed,RelWindDirFrom,WindDirFrom,air_pressure,air_temperature,relative_humidity,Temp,platform_speed_wrt_ground,air_pressure_at_mean_sea_level,platform_orientation
2019-02-02 00:00,50.6304416666667,-96.9807716666667,15.2,20.0,351,986.18,-16.5,77,0.33,0.0,1015.72,270.0
2019-02-02 00:00,50.6304416666667,-96.9807716666667,15.8,15.9,349,986.27,-16.6,77,0.33,0.0,1015.82,270.0
2019-02-02 00:10,50.6304433333333,-96.9807716666667,14.8,19.2,349,986.38,-16.6,78,0.33,0.0,1015.94,270.0
2019-02-02 00:20,50.630445,-96.98077,15.4,19.8,348,986.44,-16.7,81,0.33,0.0,1016.02,270.0
2019-02-02 00:30,50.630445,-96.98077,11.0,14.7,344,986.84,-16.7,82,0.33,0.0,1016.44,270.0
2019-02-02 00:40,50.6304466666667,-96.9807716666667,10.8,15.3,342,987.00,-16.7,82,0.33,0.0,1016.61,270.0
2019-02-02 00:50,50.6304466666667,-96.98077,13.0,17.4,344,986.94,-16.7,81,0.33,0.0,1016.55,270.0
2019-02-02 01:00,50.6304516666667,-96.9807716666667,13.2,17.9,347,986.78,-16.6,80,0.33,0.0,1016.40,360.0
2019-02-02 01:10,50.6304516666667,-96.9807716666667,14.3,18.8,352,986.72,-16.6,81,0.33,0.0,1016.35,360.0
2019-02-02 01:20,50.63047,-96.9807833333333,12.2,17.3,346,987.03,-16.6,82,0.33,0.0,1016.67,360.0
2019-02-02 01:30,50.630455,-96.9807666666667,15.5,19.7,348,986.88,-16.8,79,0.33,0.0,1016.54,360.0
2019-02-02 01:40,50.6304516666667,-96.980765,14.1,19.7,350,986.96,-16.9,78,0.33,0.0,1016.64,360.0
2019-02-02 01:50,50.6304516666667,-96.980765,14.5,19.9,352,987.07,-17.0,78,0.33,0.0,1016.76,360.0
2019-02-02 02:00,50.63045,-96.9807666666667,14.2,18.4,348,987.26,-17.1,79,0.33,0.0,1016.96,360.0
2019-02-02 02:10,50.630465,-96.980825,13.3,17.4,348,987.46,-17.1,79,0.33,0.0,1017.18,360.0
2019-02-02 02:20,50.63046,-96.980785,11.5,16.8,344,987.73,-17.1,78,0.33,0.0,1017.45,360.0
2019-02-02 02:30,50.63046,-96.9807783333333,12.2,16.6,345,987.86,-17.2,79,0.33,0.0,1017.59,360.0
2019-02-02 02:40,50.63046,-96.980775,11.3,14.7,347,987.91,-17.2,80,0.33,0.0,1017.64,360.0
2019-02-02 02:50,50.63046,-96.9807716666667,12.2,17.0,340,988.07,-17.3,80,0.33,0.0,1017.82,360.0
2019-02-02 03:00,50.63046,-96.9807683333333,12.3,16.9,342,988.29,-17.3,80,0.33,0.0,1018.04,360.0
2019-02-02 03:10,50.6304616666667,-96.9807683333333,10.9,14.8,342,988.47,-17.3,80,0.33,0.0,1018.22,360.0
2019-02-02 03:20,50.6304616666667,-96.9807683333333,10.8,15.9,339,988.56,-17.3,80,0.33,0.0,1018.32,360.0
2019-02-02 03:30,50.63045,-96.98076,12.9,17.5,342,988.45,-17.3,79,0.33,0.0,1018.22,360.0
2019-02-02 03:40,50.6304583333333,-96.98077,11.2,18.4,337,988.69,-17.4,79,0.33,0.0,1018.47,360.0
2019-02-02 03:50,50.6304516666667,-96.98076,11.6,17.4,333,988.69,-17.5,78,0.33,0.0,1018.49,360.0
2019-02-02 04:00,50.6304666666667,-96.9807916666667,12.8,17.0,338,988.57,-17.8,77,0.33,0.0,1018.38,318.8
2019-02-02 04:10,50.6304616666667,-96.9807766666667,13.1,17.3,341,988.50,-17.9,77,0.33,0.0,1018.31,318.8
2019-02-02 04:20,50.63046,-96.9807716666667,13.6,17.7,342,988.58,-18.0,77,0.33,0.0,1018.41,318.8
2019-02-02 04:30,50.6304566666667,-96.9807683333333,13.8,17.8,344,988.62,-17.9,77,0.33,0.0,1018.45,318.8
2019-02-02 04:40,50.6304566666667,-96.9807683333333,13.1,17.6,346,988.88,-17.9,77,0.33,0.0,1018.72,318.8
2019-02-02 04:50,50.630455,-96.9807683333333,11.2,15.6,345,989.03,-17.8,77,0.33,0.0,1018.87,318.8
2019-02-02 05:00,50.6304533333333,-96.9807683333333,11.3,14.3,341,989.05,-17.9,77,0.33,0.0,1018.89,90.0
2019-02-02 05:10,50.6304583333333,-96.98079,11.6,15.1,345,988.97,-17.8,77,0.33,0.0,1018.81,90.0
2019-02-02 05:20,50.630455,-96.9807866666667,10.9,13.7,341,988.90,-17.8,77,0.33,0.0,1018.74,90.0
2019-02-02 05:30,50.630455,-96.9807733333333,12.0,15.2,341,988.98,-17.8,77,0.33,0.0,1018.82,90.0
2019-02-02 05:40,50.63045,-96.9807716666667,11.2,16.6,338,989.26,-17.8,77,0.33,0.0,1019.11,90.0
2019-02-02 05:50,50.6304583333333,-96.98077,10.3,13.6,339,989.25,-17.8,77,0.33,0.0,1019.12,90.0
2019-02-02 06:00,50.6304533333333,-96.9807666666667,10.0,13.3,340,989.33,-17.8,78,0.33,0.0,1019.21,360.0
2019-02-02 06:10,50.6304266666667,-96.98076,9.3,14.9,336,989.44,-17.8,78,0.33,0.0,1019.33,360.0
2019-02-02 06:20,50.630445,-96.98077,11.5,16.1,340,989.50,-17.8,79,0.33,0.0,1019.38,360.0
2019-02-02 06:30,50.63045,-96.9807733333333,11.7,14.8,346,989.56,-17.8,79,0.33,0.0,1019.44,360.0
2019-02-02 06:40,50.63045,-96.9807783333333,13.0,17.2,352,989.39,-17.7,80,0.33,0.0,1019.27,360.0
2019-02-02 06:50,50.6304483333333,-96.9807816666667,14.1,18.7,353,989.49,-17.7,80,0.33,0.0,1019.37,360.0
2019-02-02 07:00,50.630455,-96.98078,15.4,21.4,354,989.47,-17.7,79,0.33,0.0,1019.34,360.0
2019-02-02 07:10,50.6304416666667,-96.9807783333333,14.8,19.7,351,989.56,-17.7,79,0.33,0.0,1019.44,360.0
2019-02-02 07:20,50.6304433333333,-96.980745,13.7,18.4,353,989.74,-17.7,79,0.33,0.0,1019.62,360.0
2019-02-02 07:30,50.630445,-96.98077,14.1,18.0,353,989.71,-17.6,80,0.33,0.0,1019.59,360.0
2019-02-02 07:40,50.630445,-96.9807933333333,13.9,18.0,354,989.73,-17.6,81,0.33,0.0,1019.61,360.0
2019-02-02 07:50,50.6304616666667,-96.9808016666667,14.3,18.8,356,989.65,-17.5,81,0.33,0.0,1019.52,360.0
2019-02-02 08:00,50.6304566666667,-96.980785,14.7,18.0,357,989.77,-17.4,81,0.33,0.0,1019.63,270.0
2019-02-02 08:10,50.63046,-96.9807983333333,15.9,20.3,355,989.74,-17.3,81,0.33,0.0,1019.60,270.0
2019-02-02 08:20,50.6304466666667,-96.980765,16.0,20.8,360,989.77,-17.3,81,0.33,0.0,1019.62,270.0
2019-02-02 08:30,50.6304466666667,-96.9807666666667,15.5,19.4,1,989.69,-17.3,81,0.33,0.0,1019.54,270.0
2019-02-02 08:40,50.630445,-96.98077,16.2,19.4,3,989.56,-17.3,80,0.33,0.0,1019.40,270.0
2019-02-02 08:50,50.6304433333333,-96.9807716666667,19.0,21.9,14,989.23,-17.3,78,0.33,0.0,1019.07,270.0
2019-02-02 09:00,50.63045,-96.9807666666667,20.3,23.1,12,989.17,-17.4,77,0.33,0.0,1019.01,90.0
2019-02-02 09:10,50.63044,-96.9807783333333,19.0,22.2,12,989.51,-17.4,78,0.33,0.0,1019.37,90.0
2019-02-02 09:20,50.6304416666667,-96.98078,18.5,22.0,10,989.77,-17.5,78,0.33,0.0,1019.63,90.0
2019-02-02 09:30,50.63046,-96.9807566666667,18.0,21.4,10,989.87,-17.6,78,0.33,0.0,1019.74,90.0
2019-02-02 09:40,50.630455,-96.9807616666667,19.0,23.2,11,990.05,-17.6,78,0.33,0.0,1019.92,90.0
2019-02-02 09:50,50.63044,-96.9807533333333,18.6,22.3,18,989.83,-17.7,77,0.33,0.0,1019.69,90.0
2019-02-02 10:00,50.63045,-96.9807683333333,18.9,22.2,18,990.10,-17.7,77,0.33,0.0,1019.97,90.0
2019-02-02 10:10,50.6304483333333,-96.9807666666667,17.4,20.1,15,990.22,-17.8,76,0.33,0.0,1020.09,90.0
2019-02-02 10:20,50.6304483333333,-96.9807683333333,16.7,19.4,15,990.36,-17.8,76,0.33,0.0,1020.24,90.0
2019-02-02 10:30,50.63045,-96.98077,17.9,20.0,17,990.27,-17.8,76,0.33,0.0,1020.15,90.0
2019-02-02 10:40,50.630455,-96.9807683333333,17.8,21.8,14,990.24,-17.9,77,0.33,0.0,1020.12,90.0
2019-02-02 10:50,50.63045,-96.9807716666667,18.8,22.0,19,990.18,-18.1,75,0.33,0.0,1020.08,90.0
2019-02-02 11:00,50.6304483333333,-96.9807716666667,19.0,21.6,17,990.18,-18.3,75,0.33,0.0,1020.09,119.2
2019-02-02 11:10,50.63045,-96.9807716666667,18.7,21.3,19,990.34,-18.3,75,0.33,0.0,1020.26,119.2
2019-02-02 11:20,50.63045,-96.98077,18.2,21.2,21,990.36,-18.4,74,0.33,0.0,1020.29,119.2
2019-02-02 11:30,50.63045,-96.98077,18.2,21.4,20,989.93,-18.4,75,0.33,0.0,1019.85,119.2
2019-02-02 11:40,50.63045,-96.98077,18.7,22.8,19,989.93,-18.5,76,0.33,0.0,1019.86,119.2
2019-02-02 11:50,50.630455,-96.9807933333333,18.0,20.9,19,989.89,-18.6,77,0.33,0.0,1019.82,119.2
2019-02-02 12:00,50.6304483333333,-96.9807666666667,17.8,21.1,21,990.01,-18.6,77,0.33,0.0,1019.95,360.0
2019-02-02 12:10,50.630455,-96.9807566666667,17.0,20.8,23,989.75,-18.6,77,0.33,0.0,1019.69,360.0
2019-02-02 12:20,50.630455,-96.9807633333333,16.4,19.6,25,989.87,-18.5,77,0.33,0.0,1019.81,360.0
2019-02-02 12:30,50.6304616666667,-96.9808016666667,16.2,19.2,33,989.68,-18.5,75,0.33,0.0,1019.62,360.0
2019-02-02 12:40,50.63045,-96.9807783333333,15.6,19.3,37,989.73,-18.6,74,0.33,0.0,1019.68,360.0
2019-02-02 12:50,50.63045,-96.9807766666667,16.2,18.8,37,989.46,-18.6,74,0.33,0.0,1019.41,360.0
2019-02-02 13:00,50.6304533333333,-96.980775,16.5,19.8,33,989.34,-18.7,74,0.33,0.0,1019.30,270.0
2019-02-02 13:10,50.6304516666667,-96.980775,16.1,18.5,35,989.35,-18.6,75,0.33,0.0,1019.30,270.0
2019-02-02 13:20,50.63045,-96.9807733333333,15.3,18.7,37,989.50,-18.6,74,0.33,0.0,1019.47,270.0
2019-02-02 13:30,50.6304516666667,-96.9807733333333,15.0,18.3,40,989.33,-18.6,74,0.33,0.0,1019.30,270.0
2019-02-02 13:40,50.6304516666667,-96.980775,15.0,17.5,37,989.28,-18.6,74,0.33,0.0,1019.25,270.0
2019-02-02 13:50,50.6304516666667,-96.9807733333333,14.4,16.6,36,989.43,-18.6,74,0.33,0.0,1019.41,270.0
2019-02-02 14:00,50.6304516666667,-96.9807733333333,13.9,16.8,38,989.20,-18.6,75,0.33,0.0,1019.16,360.0
2019-02-02 14:10,50.6304516666667,-96.9807733333333,15.0,17.3,37,988.99,-18.6,75,0.33,0.0,1018.95,360.0
2019-02-02 14:20,50.6304683333333,-96.98078,14.0,16.4,36,989.13,-18.6,75,0.33,0.0,1019.10,360.0
2019-02-02 14:30,50.63046,-96.9807766666667,13.0,15.2,35,989.31,-18.5,76,0.33,0.0,1019.27,360.0
2019-02-02 14:40,50.6304633333333,-96.9807733333333,13.3,15.2,42,989.15,-18.5,75,0.33,0.0,1019.12,360.0
2019-02-02 14:50,50.63044,-96.980745,13.9,15.7,39,988.99,-18.5,75,0.33,0.0,1018.95,360.0
2019-02-02 15:00,50.63045,-96.98076,13.6,15.7,40,988.87,-18.5,76,0.33,0.0,1018.82,12.6
2019-02-02 15:10,50.630455,-96.9807516666667,13.9,15.8,41,988.64,-18.5,77,0.33,0.0,1018.58,12.6
2019-02-02 15:20,50.63046,-96.9807633333333,13.9,16.5,48,988.41,-18.5,77,0.33,0.0,1018.35,12.6
2019-02-02 15:30,50.6304616666667,-96.98076,14.0,16.8,46,988.15,-18.5,79,0.33,0.0,1018.08,12.6
2019-02-02 15:40,50.630425,-96.9807466666667,14.8,16.9,45,987.97,-18.5,79,0.33,0.0,1017.90,12.6
2019-02-02 15:50,50.63046,-96.9807583333333,14.1,16.6,47,987.98,-18.5,80,0.33,0.0,1017.91,12.6
2019-02-02 16:00,50.63046,-96.9807666666667,13.9,16.0,44,987.90,-18.5,81,0.33,0.0,1017.82,12.6
2019-02-02 16:10,50.6304633333333,-96.9807633333333,13.0,14.9,44,988.11,-18.5,81,0.33,0.0,1018.04,12.6
2019-02-02 16:20,50.6304633333333,-96.98077,12.3,14.6,42,988.15,-18.4,81,0.33,0.0,1018.08,12.6
2019-02-02 16:30,50.6304583333333,-96.980765,12.6,14.8,42,987.93,-18.4,82,0.33,0.0,1017.85,12.6
2019-02-02 16:40,50.6304583333333,-96.9807633333333,13.5,16.1,44,987.77,-18.4,82,0.33,0.0,1017.67,12.6
2019-02-02 16:50,50.63046,-96.9807666666667,12.2,15.3,44,987.77,-18.4,82,0.33,0.0,1017.68,12.6
2019-02-02 17:00,50.6304583333333,-96.9807666666667,12.6,16.6,47,987.46,-18.3,81,0.33,0.0,1017.35,48.3
2019-02-02 17:10,50.6304583333333,-96.9807683333333,15.1,17.7,47,986.78,-18.4,81,0.33,0.0,1016.65,48.3
2019-02-02 17:20,50.63046,-96.98077,14.3,16.5,46,986.71,-18.4,82,0.33,0.0,1016.58,48.3
2019-02-02 17:30,50.6304583333333,-96.98077,14.2,16.8,49,986.46,-18.4,82,0.33,0.0,1016.32,48.3
2019-02-02 17:40,50.6304583333333,-96.98077,14.6,17.5,52,986.16,-18.3,82,0.33,0.0,1016.01,48.3
2019-02-02 17:50,50.6304583333333,-96.98077,15.0,17.6,52,985.99,-18.3,81,0.33,0.0,1015.83,48.3
2019-02-02 18:00,50.6304566666667,-96.98077,13.8,17.6,49,985.97,-18.2,80,0.33,0.0,1015.81,270.0
2019-02-02 18:10,50.630455,-96.9807716666667,12.6,14.9,47,986.24,-18.2,80,0.33,0.0,1016.08,270.0
2019-02-02 18:20,50.630455,-96.9807716666667,12.6,15.5,52,985.73,-18.1,81,0.33,0.0,1015.55,270.0
2019-02-02 18:30,50.630455,-96.9807716666667,12.2,14.3,51,985.87,-18.0,80,0.33,0.0,1015.69,270.0
2019-02-02 18:40,50.630455,-96.9807716666667,11.1,13.5,48,985.93,-17.9,80,0.33,0.0,1015.75,270.0
2019-02-02 18:50,50.630455,-96.9807716666667,11.8,13.7,46,985.66,-17.9,80,0.33,0.0,1015.46,270.0
2019-02-02 19:00,50.630455,-96.9807716666667,12.2,13.8,44,985.43,-17.9,80,0.33,0.0,1015.23,192.6
2019-02-02 19:10,50.6304533333333,-96.9807716666667,12.9,15.2,48,985.01,-17.9,80,0.33,0.0,1014.80,192.6
2019-02-02 19:20,50.6304533333333,-96.9807716666667,12.2,14.7,46,985.02,-17.9,80,0.33,0.0,1014.80,192.6
2019-02-02 19:30,50.63044,-96.9807783333333,12.5,14.2,42,985.00,-17.9,80,0.33,0.0,1014.78,192.6
2019-02-02 19:40,50.6304433333333,-96.980785,13.1,15.4,43,984.74,-17.9,80,0.34,0.0,1014.51,192.6
2019-02-02 19:50,50.630445,-96.98078,13.2,15.0,38,984.75,-17.9,80,0.34,0.0,1014.52,192.6
2019-02-02 20:00,50.6304466666667,-96.9807816666667,14.0,16.4,38,984.51,-17.8,80,0.34,0.0,1014.26,229.4
2019-02-02 20:10,50.630445,-96.9807783333333,13.8,16.1,41,984.36,-17.8,80,0.34,0.0,1014.11,229.4
2019-02-02 20:20,50.630445,-96.9807766666667,14.1,16.0,43,984.25,-17.7,80,0.34,0.0,1013.98,229.4
2019-02-02 20:30,50.630445,-96.9807766666667,13.9,16.8,46,983.96,-17.6,80,0.34,0.0,1013.67,229.4
2019-02-02 20:40,50.630445,-96.9807733333333,14.6,17.1,48,983.44,-17.6,80,0.34,0.0,1013.14,229.4
2019-02-02 20:50,50.6304366666667,-96.98076,14.0,17.1,48,983.48,-17.6,79,0.34,0.0,1013.18,229.4
2019-02-02 21:00,50.6304466666667,-96.9807633333333,13.3,15.7,46,983.36,-17.6,80,0.34,0.0,1013.05,142.0
2019-02-02 21:10,50.6304466666667,-96.98076,14.6,17.1,45,983.05,-17.6,79,0.34,0.0,1012.73,142.0
2019-02-02 21:20,50.6304516666667,-96.9807566666667,13.5,15.5,37,983.16,-17.7,81,0.34,0.0,1012.85,142.0
2019-02-02 21:30,50.63045,-96.9807566666667,13.6,16.3,38,982.96,-17.8,81,0.34,0.0,1012.65,142.0
2019-02-02 21:40,50.6304516666667,-96.98076,14.6,16.6,38,982.78,-17.9,81,0.34,0.0,1012.46,142.0
2019-02-02 21:50,50.6304483333333,-96.9807566666667,14.3,16.0,38,982.69,-17.8,82,0.34,0.0,1012.37,142.0
2019-02-02 22:00,50.6304433333333,-96.98075,13.9,16.4,34,982.74,-17.9,82,0.34,0.0,1012.42,130.6
2019-02-02 22:10,50.6304466666667,-96.9807616666667,13.4,15.9,32,982.81,-17.9,82,0.34,0.0,1012.49,130.6
2019-02-02 22:20,50.630445,-96.9807616666667,13.0,15.1,32,982.77,-17.9,83,0.34,0.0,1012.44,130.6
2019-02-02 22:30,50.630445,-96.9807616666667,13.4,16.0,32,982.65,-18.0,83,0.34,0.0,1012.32,130.6
2019-02-02 22:40,50.6304416666667,-96.9807866666667,14.1,17.0,30,982.67,-18.1,84,0.34,0.0,1012.35,130.6
2019-02-02 22:50,50.6304466666667,-96.980765,14.6,17.4,33,982.40,-18.1,84,0.34,0.0,1012.08,130.6
2019-02-02 23:00,50.6304433333333,-96.98077,14.7,17.4,31,982.38,-18.2,84,0.34,0.0,1012.06,113.6
2019-02-02 23:10,50.6304433333333,-96.9807733333333,15.0,18.5,32,982.30,-18.1,85,0.34,0.0,1011.97,113.6
2019-02-02 23:20,50.630445,-96.9807683333333,16.3,18.8,29,982.17,-18.2,84,0.34,0.0,1011.85,113.6
2019-02-02 23:30,50.6304466666667,-96.9807683333333,15.5,18.6,27,982.17,-18.1,85,0.34,0.0,1011.85,113.6
2019-02-02 23:40,50.630445,-96.9807683333333,15.7,18.0,30,982.07,-18.2,84,0.34,0.0,1011.76,113.6
